Regional Weather Roundup
Issued by NWS Newport/Morehead, NC

Current Version | Previous Version | Graphics & Text | Print | Product List | Glossary Off
Versions: 1 2 3 4 5 6 7 8 9 10 11 12 13 14 15 16 17 18 19 20 21 22 23 24 25 26 27 28 29 30 31 32 33 34 35 36 37 38 39 40 41 42 43 44 45 46 47 48 49 50

000
ASUS42 KMHX 062225
RWRMHX
WEATHER ROUNDUP FOR EASTERN NORTH CAROLINA
NATIONAL WEATHER SERVICE NEWPORT/MOREHEAD CITY NC
500 PM EST SAT FEB 06 2016

NOTE: "FAIR" INDICATES FEW OR NO CLOUDS BELOW 12,000 FEET
WITH NO SIGNIFICANT WEATHER AND/OR OBSTRUCTIONS TO VISIBILITY

NCZ015>017-031-032-045>047-102-103-062300-
NORTH COAST

CITY           SKY/WX    TMP DP  RH WIND       PRES   REMARKS
EDENTON        CLEAR     44  31  58 E7        30.34S
ELIZABETH CITY CLEAR     42  30  62 NE9       30.34R
KITTY HAWK     CLOUDY    43  32  65 NE7       30.31S
MANTEO         CLOUDY    42  32  67 NE8       30.33S

$$

NCZ045>047-081-094-103-104-062300-
CENTRAL COAST

CITY           SKY/WX    TMP DP  RH WIND       PRES   REMARKS
FRISCO         CLOUDY    45  34  65 NE8G16    30.31S
SWANQUARTER      N/A     45 N/A N/A NE6G13    30.30S

$$

NCZ095-097-098-100-101-062300-
SOUTHERN COAST

CITY           SKY/WX    TMP DP  RH WIND       PRES   REMARKS
BEAUFORT       CLOUDY    45  34  65 NE7       30.30S
CEDAR ISLAND     N/A     45 N/A N/A NE15G21   30.36S
JACKSONVILLE   CLOUDY    48  26  42 NE8       30.30R
PINEY ISLAND   CLOUDY   N/A N/A N/A MISG      30.31S
WILMINGTON     CLOUDY    47  33  58 NE5       30.29R


$$

NCZ011>013-027>030-043-044-078>080-089-090>093-098-062300-
COASTAL PLAIN

CITY           SKY/WX    TMP DP  RH WIND       PRES   REMARKS
AHOSKIE        CLEAR     42  23  46 CALM      30.34S
CLINTON        CLEAR     48  26  42 NE3       30.31S
ELIZABETHTOWN  CLOUDY    48  23  37 CALM      30.30R
GOLDSBORO      MOCLDY    48  21  34 N7        30.30R
GREENVILLE     MOCLDY    45  27  49 N5        30.33R
HAVELOCK       CLOUDY    47  33  58 NE9       30.32R
KENANSVILLE      N/A     46  23  40 CALM      30.33S
KINSTON        CLEAR     46  25  42 NE5       30.33R
NEW BERN       CLOUDY    46  29  51 NE13      30.32R
RICHLANDS      CLOUDY    46  25  42 N7        30.31S
ROCKY MOUNT    CLEAR     46  23  40 N6        30.33S
WASHINGTON     MOCLDY    44  27  49 CALM      30.33R
WHITEVILLE     CLOUDY    48  24  38 NE5       30.28S

$$

AMZ130-135-150-152-154-156-158-170-250-252-270-ANZ085-086-088-633-658-670-062300-
MARINE OBSERVATIONS

STATION/POSITION TIME  TEMP    WIND        PRES    WAVE   SWELL
                       AIR SEA DIR/SP/G            HT/PER HT/PER
                 (UTC) (F)     (DEG/KT/KT) (MB)    (FT/S) (FT/S)
CHESAPEAKE LIGHT 2200   40      30/  5/  6 1028.2
64 E VA BEACH    2150   44 54   30/ 10/ 12 1026.6    4/ 8   3/ 8
DUCK             2200   42 45              1026.5
2 E DUCK         2111      45                N/A     3/ 8   2/11
OREGON INLET     2200   43 47              1026.6
13E OREGON INLT  2200      46                N/A     5/12   2/12
HATTERAS CG      2200   45 53              1025.7
DIAMOND BUOY     2150   52 71   10/ 17/ 21 1025.0    6/11   5/11
CAPE LOOKOUT     NOT AVBL
BEAUFORT LAB     2200   45 50              1025.2
30 SE NEW RVR IN 2108   50 65              1023.7
30 SE NEW RVR IN 2125      65                N/A     5/11   2/11
27 SE WRIGHTSVLE 2108   52 69  360/ 17/ 23 1024.2
5 SE WRIGHTSVLE  2108   49 53   70/ 16/ 19 1025.3
225 S CAPE HAT   2150   58 69  100/ 14/ 16   N/A     8/11   7/11
41 SE CHARLESTON 2150   56 64   30/ 23/ 27 1021.5    7/ 6   3/ 9

$$



USA.gov is the U.S. government's official web portal to all federal, state and local government web resources and services.